星链-31877 (STARLINK-31877 )

导读 | 星芒AI

STARLINK-31877 是 SpaceX 星链计划中的一颗低轨通信卫星,属于其第三代星链卫星群。该卫星于2023年发射,旨在为全球用户提供高速互联网服务。它运行在约550公里高的近地轨道,具备先进通信技术,支持低延迟和高带宽数据传输。作为星链网络的一部分,STARLINK-31877 有助于扩大覆盖范围,提升网络性能,并推动偏远地区的互联网接入。该卫星采用可再生电源系统,并设计有主动离轨能力,以减少太空垃圾风险。

基本信息
目录编号:
59675
目录名称:
STARLINK-31877
国际标识:
2024-084X
轨道中心:
EARTH
卫星名称:
星链-31877
卫星全名:
星链-31877 (STARLINK-31877 )
卫星状态:
在轨 (已飞行593 天)
发射日期:
2024-05-06 UTC
国别 :
美国 (US)
星等 :
--
轨道信息
数据来源 国际轨道数据 AOE轨道数据
星历时间 2025-12-20T03:11:31+0800
8小时前
查看轨道信息
2025-12-15T03:00:00+0800
5天前
查看轨道信息
半长轴 6861.203km 6861.199km
偏心率 0.000142 0.0001319
轨道倾角 43.002° 42.999°
近地点辐角 270.058° 273.190°
升交点赤经 133.083° 161.367°
平近点角 90.011° 234.194°
近地点 482.091km 482.159km
远地点 484.041km 483.969km
周期 94.267分钟 94.267分钟
每日圈数 15.275744 15.275759
详细信息
固有亮度:
5
最大亮度:
1.5
卫星平台:
Starlink v2.0 mini
覆盖范围:
全球
运营商:
太空探索技术公司
运营商所在国:
美国
制造商(研发单位):
太空探索技术公司
制造商所在国:
美国
使用方式:
暂无
卫星简介
星链(Starlink)计划是由太空探索技术公司(SpaceX)提出的一个巨型低轨卫星互联网星座项目,计划在2019年至2024年间在太空搭建由约1.2万颗卫星组成的“星链”网络,其中1584颗将部署在地球上空550千米处的近地轨道,并从2020年开始工作。该卫星仍在工作。
2D轨道图
3D轨道图
轨道高度分析图
轨道倾角分析图
轨道综合分析图
查看轨道综合分析图